Etusivu
METAR-TAF:

METAR-TAF

Lentoasemat :

Orcas Island Airport

Eastsound, Washington, Yhdysvallat

Leveyspiiri: 48-42-29N, Pituuspiiri: 122-54-37W, korkeus merenpinnasta: 9 m

Tämänhetkinen sää

Tämä raportti tehtiin 19 minuuttia sitten, kello 04.35 UTC
tyyntä
Lämpötila 3°C
Kosteus 100%
Ilmanpaine 1017 hPa
Näkyvyys: 16.1 km
selkeää

METAR: KORS 220435Z AUTO 00000KT 10SM CLR 03/03 A3004 RMK AO2

Aika: 20:54 (04:54 UTC)


TAF: puuttuu

Säähavainnot ja -ennusteet yli 4000 lentoasemalta (METAR- ja TAF-raportit).

Käytössä olevat sääasemat on merkitty karttaan keltaisilla ja punaisilla pisteillä.

Aseta hiiri pisteen päälle nähdäksesi sääaseman nimen.

Klikkaa sitten nähdäksesi säähavainnot ja -ennusteet.

Kartan vaihtaminen: klikkaa mustalla rastilla varustettuja vihreitä pisteitä, niin voit zoomata sisään; viivalla varustettua vihreää pistettä, niin voit zoomata ulos tai vihreitä nuolia, niin pääset viereisille kartoille.


METAR-TAF: